Regional Weather Roundup
Issued by NWS

Home | Current Version | Previous Version | Text Only | Print | Product List | Glossary On
Versions: 1 2 3 4 5 6 7 8 9 10 11 12 13 14 15 16 17 18 19 20 21 22 23 24 25 26 27 28 29 30 31 32 33 34 35 36 37 38 39 40 41 42 43 44 45 46 47 48 49 50
000
ASUS44 KBMX 140610
RWRAL

ALABAMA REGIONAL WEATHER ROUNDUP
NATIONAL WEATHER SERVICE BIRMINGHAM AL
1200 AM CST THU DEC 14 2017

NOTE: "FAIR" INDICATES FEW OR NO CLOUDS BELOW 12,000 FEET
WITH NO SIGNIFICANT WEATHER AND/OR OBSTRUCTIONS TO VISIBILITY.

THE REMARK "TC" DENOTES TEMPERATURE IN DEGREES CELSIUS.

ALZ001>011-014-016>018-020-140700-
NORTH ALABAMA

CITY           SKY/WX    TMP DP  RH WIND       PRES   REMARKS
MUSCLE SHOALS  CLEAR     47  24  40 W14       29.85S
6HR MIN TEMP:  43; 6HR MAX TEMP:  48;

HUNTSVILLE     CLEAR     40  26  57 SW6       29.84S
6HR MIN TEMP:  39; 6HR MAX TEMP:  47;

DECATUR        CLEAR     43  27  53 SW8       29.85S
6HR MIN TEMP:  38; 6HR MAX TEMP:  48;

HALEYVILLE     FAIR      41  26  55 SW7       29.88S
6HR MIN TEMP:  40; 6HR MAX TEMP:  46;

GADSDEN        CLEAR     37  28  70 SW7       29.88F WCI  32
6HR MIN TEMP:  29; 6HR MAX TEMP:  46;

$$

ALZ012-013-022-023-030>036-040>044-140700-
WEST CENTRAL ALABAMA

CITY           SKY/WX    TMP DP  RH WIND       PRES   REMARKS
TUSCALOOSA     PTCLDY    41  31  67 S6        29.93S
6HR MIN TEMP:  40; 6HR MAX TEMP:  48;

DEMOPOLIS        N/A     40  31  71 S3        29.95F
6HR MIN TEMP:  41; 6HR MAX TEMP:  50;

$$

ALZ015-024>026-033>036-041>044-140700-
CENTRAL ALABAMA

CITY           SKY/WX    TMP DP  RH WIND       PRES   REMARKS
BIRMINGHAM     CLEAR     45  28  51 SW8       29.92F
6HR MIN TEMP:  45; 6HR MAX TEMP:  49;

MONTGOMERY     CLEAR     41  30  65 SW8       29.96S
6HR MIN TEMP:  40; 6HR MAX TEMP:  47;

SHELBY CO ARPT CLEAR     43  30  60 VRB3      29.92S
6HR MIN TEMP:  42; 6HR MAX TEMP:  47;

MAXWELL AFB    CLEAR     38  31  78 CALM      29.94S
6HR MIN TEMP:  38; 6HR MAX TEMP:  48;

GREENVILLE     FAIR      42  30  62 SW6       29.95S
6HR MIN TEMP:  42; 6HR MAX TEMP:  49;

SELMA          FAIR      39  32  75 SW3       29.96R
PRATTVILLE     FAIR      35  31  85 CALM      29.95S
6HR MIN TEMP:  35; 6HR MAX TEMP:  47;

BESSEMER       FAIR      43  28  55 SW8       29.92S
6HR MIN TEMP:  43; 6HR MAX TEMP:  46;

TALLADEGA      FAIR      43  28  56 SW7       29.91F
6HR MIN TEMP:  43; 6HR MAX TEMP:  45;

PELL CITY      CLEAR     37  30  75 SW5       29.90F WCI  34
MARION         FAIR      34  32  90 CALM      29.94S
6HR MIN TEMP:  34; 6HR MAX TEMP:  48;

SYLACAUGA      FAIR      41  32  71 SW6       29.92F
6HR MIN TEMP:  40; 6HR MAX TEMP:  47;

$$

ALZ019-021-028-029-037-038-045>048-140700-
EAST CENTRAL ALABAMA

CITY           SKY/WX    TMP DP  RH WIND       PRES   REMARKS
ANNISTON       CLEAR     38  27  64 W8        29.89F WCI  32
6HR MIN TEMP:  37; 6HR MAX TEMP:  45;

ALEXANDER CITY CLEAR     35  32  90 SW3       29.92S
6HR MIN TEMP:  34; 6HR MAX TEMP:  42;

AUBURN         CLEAR     42  29  59 SW8       29.94R
6HR MIN TEMP:  42; 6HR MAX TEMP:  45;

$$

ALZ051>064-140700-
SOUTHWEST ALABAMA

CITY           SKY/WX    TMP DP  RH WIND       PRES   REMARKS
MOBILE         CLOUDY    49  41  74 SW7       29.98F
6HR MIN TEMP:  46; 6HR MAX TEMP:  50;

BROOKLEY FIELD PTCLDY    46  41  82 CALM      30.00F
6HR MIN TEMP:  43; 6HR MAX TEMP:  51;

EVERGREEN      CLOUDY    42  33  70 W3        29.98R
6HR MIN TEMP:  42; 6HR MAX TEMP:  49;

$$

ALZ049-050-065>069-140700-
SOUTHEAST ALABAMA

CITY           SKY/WX    TMP DP  RH WIND       PRES   REMARKS
DOTHAN         CLOUDY    47  37  68 W9        29.98F
6HR MIN TEMP:  44; 6HR MAX TEMP:  49;

OZARK          CLOUDY    44  35  68 W5        29.95F
6HR MIN TEMP:  41; 6HR MAX TEMP:  48;

TROY           CLOUDY    40  32  73 CALM      29.97R
6HR MIN TEMP:  39; 6HR MAX TEMP:  45;

EUFAULA        FAIR      43  32  65 W5        29.94S
6HR MIN TEMP:  39; 6HR MAX TEMP:  46;

$$



USA.gov is the U.S. government's official web portal to all federal, state and local government web resources and services.